Regional Weather Roundup
Issued by NWS

Home | Current Version | Previous Version | Text Only | Print | Product List | Glossary On
Versions: 1 2 3 4 5 6 7 8 9 10 11 12 13 14 15 16 17 18 19 20 21 22 23 24 25 26 27 28 29 30 31 32 33 34 35 36 37 38 39 40 41 42 43 44 45 46 47 48 49 50
000
ASUS45 KSLC 290010
RWRUT

UTAH REGIONAL WEATHER ROUNDUP
NATIONAL WEATHER SERVICE SALT LAKE CITY UT
600 PM MDT SAT MAY 28 2016

UTZ001>011-023>025-290100-

NORTHERN UTAH

CITY           SKY/WX    TMP DP  RH WIND       PRES   REMARKS
BRIGHAM CITY     N/A     71  30  22 NE6       30.02S
HILL AFB       SUNNY     69  37  30 NE6       30.03F
LOGAN          SUNNY     68  38  33 NW5       30.03S
OGDEN          SUNNY     71  35  26 MISG      30.02S
PROVO AIRPORT  MOSUNNY   72  45  37 NW12      30.00F
SALT LAKE CITY MOSUNNY   74  38  27 N13       30.00S
VERNAL         CLOUDY    71  35  26 S5        30.04R
WENDOVER       PTSUNNY   72  36  26 S8        30.01R
HEBER CITY     MOSUNNY   68  34  28 E3        30.04F
WEST JORDAN    SUNNY     72  41  33 NW8       30.02F

$$

UTZ012>022-026-027-290100-

SOUTHERN/CENTRAL UTAH

CITY           SKY/WX    TMP DP  RH WIND       PRES   REMARKS
BLANDING       MOSUNNY   72  27  18 CALM      30.13F
BRYCE CANYON   PTSUNNY   63  27  25 SE8G18    30.15S
CEDAR CITY     CLOUDY    75  23  14 W12G18    29.99S
DELTA          PTSUNNY   70  36  28 W15G25    30.01R
HANKSVILLE     PTSUNNY   73  34  23 N8        30.02F
MILFORD        PTSUNNY   75  31  19 E8        29.98F
MOAB/CYNLANDS  PTSUNNY   77  31  18 W20       29.97R
PRICE          CLOUDY    65  35  33 S12G18    30.08R
ST GEORGE      PTCLDY    88  30  12 NW8       29.85S

$$

REGIONAL REPORTS     COLORADO/ARIZONA

CITY           SKY/WX    TMP DP  RH WIND       PRES   REMARKS
CRAIG, CO      CLOUDY    67  37  33 W9        30.09R
GRAND JUNCTION MOSUNNY   75  32  20 VRB3      29.99F
RIFLE          CLOUDY    68  33  27 E8        30.07R
MONTROSE       SUNNY     72  27  18 E3        30.06F
CORTEZ         SUNNY     74  19  12 MISG      30.06S
PAGE, AZ       MOSUNNY   83  27  13 NE10      29.92F
GRAND CANYON   CLOUDY    72  28  19 CALM      30.09F
KINGMAN        SUNNY     85  25  11 SW13      29.87F
FLAGSTAFF      MOSUNNY   69  24  18 SW9       30.09S

$$

REGIONAL REPORTS    NEVADA/IDAHO/WYOMING

CITY           SKY/WX    TMP DP  RH WIND       PRES   REMARKS
LAS VEGAS, NV  PTSUNNY   91  24   9 VRB5      29.74F
ELY            PTSUNNY   65  35  33 N12       30.06S
ELKO           MOSUNNY   71  32  23 W8        30.00S
POCATELLO, ID  SUNNY     66  27  23 W9        30.06F
BURLEY         SUNNY     66  31  27 VRB6      30.03F
EVANSTON, WY   MOSUNNY   62  26  25 W21G30    30.13R
ROCK SPRINGS   CLOUDY    57  38  48 S10       30.10R
KEMMERER         N/A     59  30  33 W16G24    30.13S

$$



USA.gov is the U.S. government's official web portal to all federal, state and local government web resources and services.